Location: Demmingen
(48.6757°N, 10.4375°E)
Time: 03:10:53
(UTC+00:00)

Cosmos 2181 Rocket - Pass Details

Date: 23 May 2024
Orbit: 951 x 1014 km, 82.9° (Epoch: 19 June)

Event Time Altitude Azimuth Distance (km) Brightness Sun altitude
Rises 01:48:41 0° 350° (N) 3,745 7.7 -12.7°
Reaches altitude 10° 01:51:15 10° 350° (N) 2,784 7.0 -12.4°
Maximum altitude 01:57:39 85° 264° (W) 1,000 4.0 -11.8°
Drops below altitude 10° 02:03:55 10° 175° (S) 2,721 5.9 -11.1°
Enters shadow 02:05:56 - 175° (S) 3,485 6.5 -10.9°
